Weather reports worldwide

Advertisment
San Luis Obispo, ca, United States of America (2072989): temperature & dewpoint: 17.07.2019 13:00:00 - 23.07.2019 13:00:00 (PDT)San Luis Obispo, ca, United States of America (2072989): wind speed: 17.07.2019 13:00:00 - 23.07.2019 13:00:00 (PDT)San Luis Obispo, ca, United States of America (2072989): wind direction: 17.07.2019 13:00:00 - 23.07.2019 13:00:00 (PDT)San Luis Obispo, ca, United States of America (2072989): reduced air pressure: 17.07.2019 13:00:00 - 23.07.2019 13:00:00 (PDT)San Luis Obispo, ca, United States of America (2072989): visibility: 17.07.2019 13:00:00 - 23.07.2019 13:00:00 (PDT)
Date & Time tt [°C] td [°C] ff [km/h] ff [kn] dd ppp [hPa] vv [km]
23.07.2019 13:00:00 25,6 13,3 18 10 WNW 1015,8 16
23.07.2019 12:00:00 25,0 13,3 16 9 NW 1015,9 16
23.07.2019 11:00:00 25,0 13,3 8 4 - 1015,9 16
23.07.2019 10:00:00 21,7 12,8 0 0 N 1015,9 16
23.07.2019 09:00:00 16,7 12,2 5 3 W 1015,9 16
23.07.2019 08:00:00 12,8 12,2 0 0 N 1016,4 10
23.07.2019 07:00:00 12,2 12,2 5 3 SE 1016,1 3,2
23.07.2019 06:00:00 12,2 11,7 0 0 N 1015,5 1,2
23.07.2019 05:00:00 12,2 11,7 5 3 NW 1014,9 2,8
23.07.2019 04:00:00 12,2 11,7 8 4 WNW 1014,8 2,8
23.07.2019 03:00:00 12,8 12,2 8 4 W 1014,7 2,4
23.07.2019 02:00:00 12,8 12,2 0 0 N 1015,2 6
23.07.2019 01:00:00 12,8 11,7 5 3 WNW 1015,5 11
23.07.2019 00:00:00 12,8 11,7 5 3 NW 1016,0 13
22.07.2019 23:00:00 13,3 12,2 0 0 N 1016,0 16
22.07.2019 22:00:00 13,3 12,2 9 5 WNW 1015,7 16
22.07.2019 21:00:00 13,9 12,2 13 7 WNW 1015,3 16
22.07.2019 20:00:00 16,1 12,8 13 7 WNW 1014,8 16
22.07.2019 19:00:00 20,0 12,8 13 7 WNW 1014,3 16
22.07.2019 18:00:00 21,1 13,3 18 10 WNW 1014,1 16
22.07.2019 17:00:00 22,2 13,3 22 12 WNW 1014,3 16
22.07.2019 16:00:00 26,1 13,3 16 9 NW 1014,5 16
22.07.2019 15:00:00 25,0 13,3 16 9 WNW 1014,7 16
22.07.2019 14:00:00 24,4 13,3 26 14 NW 1014,7 16
22.07.2019 13:00:00 26,7 13,3 13 7 W 1014,8 16
22.07.2019 12:00:00 23,9 12,8 0 0 N 1015,2 16
22.07.2019 11:00:00 21,1 12,8 0 0 N 1015,2 16
22.07.2019 10:00:00 17,2 12,2 0 0 N 1015,3 16
22.07.2019 09:00:00 15,0 12,2 0 0 N 1015,2 16
22.07.2019 08:00:00 13,3 12,2 8 4 WNW 1015,0 15
22.07.2019 07:00:00 13,3 12,2 8 4 WNW 1014,3 16
22.07.2019 06:00:00 13,3 12,2 0 0 N 1014,2 13
22.07.2019 05:00:00 13,3 12,2 0 0 N 1013,9 15
22.07.2019 04:00:00 13,3 12,2 5 3 W 1014,0 15
22.07.2019 03:00:00 13,3 12,8 8 4 WNW 1013,8 15
22.07.2019 02:00:00 13,3 12,2 8 4 W 1013,8 15
22.07.2019 01:00:00 13,9 12,8 9 5 WNW 1013,9 15
22.07.2019 00:00:00 13,9 12,8 9 5 WNW 1014,3 16
21.07.2019 23:00:00 13,9 12,2 9 5 WNW 1014,2 16
21.07.2019 22:00:00 13,9 12,2 13 7 NW 1014,1 16
21.07.2019 21:00:00 13,9 12,2 13 7 NW 1013,6 16
21.07.2019 20:00:00 15,6 12,2 15 8 NW 1013,3 16
21.07.2019 19:00:00 17,2 12,8 18 10 NW 1013,1 16
21.07.2019 18:00:00 19,4 13,3 22 12 NW 1012,9 16
21.07.2019 17:00:00 21,7 13,3 24 13 NW 1013,1 16
21.07.2019 16:00:00 23,3 13,3 26 14 NW 1013,2 16
21.07.2019 15:00:00 23,3 13,3 18 10 NW 1013,3 16
21.07.2019 14:00:00 23,9 13,3 18 10 WNW 1013,5 16
21.07.2019 13:00:00 25,0 13,3 15 8 WNW 1013,6 16
21.07.2019 12:00:00 22,2 13,3 8 4 S 1013,8 16
21.07.2019 11:00:00 20,0 12,8 0 0 N 1014,3 16
21.07.2019 10:00:00 17,2 12,8 5 3 - 1014,2 16
21.07.2019 09:00:00 15,0 12,8 13 7 WNW 1014,4 16
21.07.2019 08:00:00 14,4 12,8 11 6 W 1014,4 16
21.07.2019 07:00:00 14,4 12,8 5 3 WNW 1013,9 16
21.07.2019 06:00:00 14,4 12,8 8 4 WNW 1013,5 16
21.07.2019 05:00:00 15,0 12,8 5 3 WSW 1013,3 16
21.07.2019 04:00:00 15,0 12,8 5 3 WNW 1012,9 16
21.07.2019 03:00:00 15,0 12,8 0 0 N 1013,3 16
21.07.2019 02:00:00 15,0 12,8 5 3 - 1013,3 16
21.07.2019 01:00:00 15,0 12,8 8 4 WNW 1013,3 16
21.07.2019 00:00:00 15,0 12,8 5 3 - 1013,5 10
20.07.2019 23:00:00 13,9 12,2 9 5 WNW 1013,3 16
20.07.2019 22:00:00 14,4 12,2 11 6 NW 1013,3 16
20.07.2019 21:00:00 15,0 12,2 13 7 NW 1012,6 16
20.07.2019 20:00:00 17,2 12,2 9 5 SW 1012,5 16
20.07.2019 19:00:00 19,4 12,8 8 4 SW 1012,2 16
20.07.2019 18:00:00 20,0 12,8 13 7 SW 1012,5 16
20.07.2019 17:00:00 21,1 12,8 13 7 SSW 1012,6 16
20.07.2019 16:00:00 21,7 12,2 15 8 SSW 1013,0 16
20.07.2019 15:00:00 21,7 12,2 13 7 S 1013,3 16
20.07.2019 14:00:00 21,7 12,2 15 8 S 1013,6 16
20.07.2019 13:00:00 21,7 12,2 11 6 SSW 1014,1 16
20.07.2019 12:00:00 20,6 12,2 16 9 W 1014,5 16
20.07.2019 11:00:00 18,9 12,2 8 4 - 1014,9 16
20.07.2019 10:00:00 16,7 12,2 5 3 SE 1015,0 16
20.07.2019 09:00:00 16,1 12,2 11 6 ESE 1015,0 16
20.07.2019 08:00:00 15,6 11,7 11 6 SE 1014,8 16
20.07.2019 07:00:00 15,0 12,2 8 4 S 1014,3 16
20.07.2019 06:00:00 15,6 12,2 9 5 SSE 1014,2 16
20.07.2019 05:00:00 15,6 12,2 0 0 N 1013,7 16
20.07.2019 04:00:00 15,6 12,2 5 3 WSW 1013,6 16
20.07.2019 03:00:00 15,6 12,2 8 4 SW 1013,7 16
20.07.2019 02:00:00 15,6 12,2 0 0 N 1014,1 16
20.07.2019 01:00:00 15,6 12,2 8 4 N 1014,1 16
20.07.2019 00:00:00 15,6 12,2 9 5 NW 1014,1 16
19.07.2019 23:00:00 15,6 12,2 11 6 NNW 1014,1 16
19.07.2019 22:00:00 15,0 11,7 11 6 NW 1014,1 16
19.07.2019 21:00:00 15,0 12,2 15 8 WNW 1013,7 16
19.07.2019 20:00:00 16,1 12,2 16 9 NW 1013,4 16
19.07.2019 19:00:00 17,8 12,2 24 13 WNW 1013,2 16
19.07.2019 18:00:00 19,4 12,2 24 13 NW 1013,4 16
19.07.2019 17:00:00 21,1 12,8 22 12 NW 1013,5 16
19.07.2019 16:00:00 21,7 12,8 22 12 NW 1013,9 16
19.07.2019 15:00:00 22,8 12,8 13 7 W 1014,2 16
19.07.2019 14:00:00 21,7 12,8 9 5 NNW 1014,4 16
19.07.2019 13:00:00 18,3 12,8 11 6 ESE 1015,1 16
19.07.2019 12:00:00 17,2 12,8 8 4 - 1015,2 16
19.07.2019 11:00:00 15,6 12,2 5 3 - 1015,6 16
19.07.2019 10:00:00 14,4 12,2 8 4 SW 1015,2 16
19.07.2019 09:00:00 14,4 12,2 8 4 SSW 1015,0 16
19.07.2019 08:00:00 13,9 12,2 5 3 S 1014,4 15
19.07.2019 07:00:00 13,9 12,8 9 5 S 1013,9 6
19.07.2019 06:00:00 13,9 12,8 5 3 S 1013,6 10
19.07.2019 05:00:00 15,0 12,8 8 4 SSE 1013,2 16
19.07.2019 04:00:00 14,4 12,8 5 3 WSW 1013,1 16
19.07.2019 03:00:00 14,4 12,8 0 0 N 1013,1 16
19.07.2019 02:00:00 14,4 12,8 5 3 NW 1013,1 16
19.07.2019 01:00:00 14,4 12,8 9 5 W 1013,2 16
19.07.2019 00:00:00 14,4 12,8 9 5 WNW 1013,3 16
18.07.2019 23:00:00 14,4 12,8 8 4 NW 1013,4 16
18.07.2019 22:00:00 15,0 12,8 9 5 WNW 1013,3 16
18.07.2019 21:00:00 15,6 12,8 13 7 WNW 1013,2 16
18.07.2019 20:00:00 16,7 13,3 18 10 WNW 1012,7 16
18.07.2019 19:00:00 19,4 13,3 21 11 NW 1012,6 16
18.07.2019 18:00:00 21,1 13,3 15 8 WNW 1013,0 16
18.07.2019 17:00:00 22,2 13,3 21 11 WNW 1013,3 16
18.07.2019 16:00:00 22,8 13,9 9 5 WSW 1013,6 16
18.07.2019 15:00:00 22,2 13,9 13 7 SW 1013,9 16
18.07.2019 14:00:00 21,7 13,9 13 7 SW 1014,3 16
18.07.2019 13:00:00 22,2 13,9 13 7 W 1014,7 16
18.07.2019 12:00:00 20,6 13,3 11 6 W 1015,0 16
18.07.2019 11:00:00 18,3 13,3 0 0 N 1015,4 16
18.07.2019 10:00:00 15,6 12,8 0 0 N 1015,7 16
18.07.2019 09:00:00 14,4 12,8 5 3 W 1015,7 16
18.07.2019 08:00:00 13,9 12,2 0 0 N 1015,5 13
18.07.2019 07:00:00 13,9 12,2 0 0 N 1014,9 15
18.07.2019 06:00:00 13,3 12,2 5 3 S 1014,5 16
18.07.2019 05:00:00 13,9 12,2 5 3 S 1014,2 16
18.07.2019 04:00:00 13,9 12,2 5 3 S 1014,2 16
18.07.2019 03:00:00 13,9 12,2 8 4 SSW 1014,5 16
18.07.2019 02:00:00 14,4 12,2 9 5 SE 1014,5 16
18.07.2019 01:00:00 14,4 12,2 5 3 SSE 1014,8 16
18.07.2019 00:00:00 14,4 12,2 0 0 N 1014,6 16
17.07.2019 23:00:00 14,4 12,2 5 3 - 1014,8 10
17.07.2019 22:00:00 13,9 12,2 5 3 SSE 1014,6 16
17.07.2019 21:00:00 14,4 11,7 9 5 NW 1014,3 16
17.07.2019 20:00:00 16,1 12,2 13 7 WNW 1014,1 16
17.07.2019 19:00:00 18,9 12,8 13 7 NW 1014,0 16
17.07.2019 18:00:00 20,6 12,8 15 8 NW 1014,0 16
17.07.2019 17:00:00 21,1 12,8 16 9 WNW 1014,0 16
17.07.2019 16:00:00 22,2 12,8 15 8 WNW 1014,2 16
17.07.2019 15:00:00 22,8 12,8 16 9 NW 1014,3 16
17.07.2019 14:00:00 22,8 12,8 16 9 WNW 1014,5 16
17.07.2019 13:00:00 22,8 12,8 18 10 WNW 1014,5 16

tt = temperature
td = dewpoint
ff = wind speed
dd = wind direction
ppp = reduced air pressure
vv = visibility

Next stations